TimeEST,TemperatureF,Dew PointF,Humidity,Sea Level PressureIn,VisibilityMPH,Wind Direction,Wind SpeedMPH,Gust SpeedMPH,PrecipitationIn,Events,Conditions,WindDirDegrees,DateUTC
12:54 AM,32.0,25.0,75,30.26,10.0,North,4.6,-,N/A,,Clear,10,2012-12-07 05:54:00
1:54 AM,34.0,26.1,73,30.25,10.0,North,3.5,-,N/A,,Clear,350,2012-12-07 06:54:00
2:54 AM,34.0,27.0,75,30.22,10.0,Calm,Calm,-,N/A,,Clear,0,2012-12-07 07:54:00
3:54 AM,32.0,26.1,79,30.21,10.0,North,3.5,-,N/A,,Partly Cloudy,360,2012-12-07 08:54:00
4:54 AM,34.0,28.0,79,30.21,10.0,Calm,Calm,-,N/A,,Mostly Cloudy,0,2012-12-07 09:54:00
5:54 AM,37.0,30.9,79,30.20,10.0,Calm,Calm,-,N/A,,Overcast,0,2012-12-07 10:54:00
6:54 AM,41.0,35.1,79,30.20,10.0,Calm,Calm,-,0.00,,Overcast,0,2012-12-07 11:54:00
7:54 AM,44.1,37.0,76,30.19,10.0,Calm,Calm,-,N/A,,Overcast,0,2012-12-07 12:54:00
8:54 AM,48.0,41.0,77,30.20,10.0,Calm,Calm,-,N/A,,Overcast,0,2012-12-07 13:54:00
9:54 AM,50.0,42.1,74,30.19,10.0,SSE,3.5,-,N/A,,Overcast,150,2012-12-07 14:54:00
10:54 AM,55.0,45.0,69,30.17,10.0,SSW,9.2,-,N/A,,Overcast,210,2012-12-07 15:54:00
11:54 AM,55.0,45.0,69,30.14,10.0,South,8.1,-,N/A,,Overcast,190,2012-12-07 16:54:00
12:54 PM,55.9,46.0,69,30.11,10.0,SSW,6.9,-,N/A,,Overcast,210,2012-12-07 17:54:00
1:54 PM,55.9,46.0,69,30.09,10.0,SW,5.8,-,N/A,,Overcast,220,2012-12-07 18:54:00
2:54 PM,55.9,46.9,72,30.09,10.0,SSW,3.5,-,N/A,,Overcast,210,2012-12-07 19:54:00
3:54 PM,55.0,46.9,74,30.08,10.0,SSE,4.6,-,N/A,,Overcast,160,2012-12-07 20:54:00
4:54 PM,54.0,46.9,77,30.06,10.0,South,9.2,-,N/A,,Overcast,170,2012-12-07 21:54:00
5:54 PM,54.0,48.0,80,30.06,10.0,SSW,3.5,-,N/A,,Overcast,200,2012-12-07 22:54:00
6:54 PM,54.0,48.0,80,30.06,10.0,SSE,4.6,-,N/A,,Overcast,160,2012-12-07 23:54:00
7:54 PM,53.6,48.2,82,30.06,10.0,SSE,4.6,-,N/A,,Overcast,160,2012-12-08 00:54:00
8:54 PM,54.0,48.0,80,30.03,10.0,South,4.6,-,0.00,,Overcast,170,2012-12-08 01:54:00
9:54 PM,55.9,48.9,77,30.01,10.0,SSW,8.1,-,N/A,,Overcast,200,2012-12-08 02:54:00
10:37 PM,55.9,48.9,77,30.01,10.0,SSW,10.4,-,N/A,,Overcast,200,2012-12-08 03:37:00
10:54 PM,57.0,48.9,74,30.00,10.0,SSW,10.4,-,N/A,,Overcast,210,2012-12-08 03:54:00
11:52 PM,57.2,50.0,77,29.99,10.0,SSW,11.5,-,N/A,,Overcast,210,2012-12-08 04:52:00
11:54 PM,57.0,50.0,77,29.99,10.0,SSW,11.5,-,N/A,,Overcast,210,2012-12-08 04:54:00